Content
SEND FEEDBACK

Daily
Averages
Monthly
Summary
United States of America

STATEN ISLAND, NEW YORK


Home > North America > United States > New York
Elevation: 152 feet     Latitude: 40 35N     Longitude: 074 09W

WEATHER
 
SELECT A DAY
Number of Records: 192,328;   Date Range: 1/1/95 - 10/19/14
 
SHARE

PRINT THIS DATA

[ ← Previous Day ]
WEATHER ALMANAC - AUGUST 18, 2013
[ Next Day → ]
[ °C ]   °F
Weather ElementAverageHighLow
Temperature71.8 °F77 °F (1:51 pm)66.9 °F (4:51 am)
Dewpoint56.7 °F60.1 °F (8:51 am)51.1 °F (4:51 pm)
Humidity60 %73 % (4:51 am)42 % (4:51 pm)
Barometer30.20 in30.26 in (7:51 am)30.14 in (4:51 pm)
Wind Speed5 mph10.4 mph (2:51 pm)
Weather ElementAverage
Visibility10 mi
Wind DirectionENE (75.2 °)

Weather ElementTotal
Precipitation---
Cooling Degree Days7 (Base 65)
Growing Degree Days22 (Base 50)
Averaged from 23 records on August 18, 2013
WEATHER CONDITIONS BREAKOUT
WIND DIRECTION BREAKOUT
WEATHER BY HOUR - AUGUST 18, 2013
[ °C ]   °F
Local TimeTemperatureDewpointHumidityBarometerVisibilityWind DirectionWind SpeedGust SpeedPrecipitationEventsConditions
1:51 AM69.1 °F55.9 °F63 %30.24 in10.0 miCalmMostly Cloudy
2:51 AM69.1 °F57.0 °F65 %30.24 in10.0 miCalmMostly Cloudy
3:51 AM68.0 °F57.0 °F68 %30.24 in10.0 miNE (40°)5.8 mphMostly Cloudy
4:51 AM66.9 °F57.9 °F73 %30.24 in10.0 miNNE (30°)4.6 mphOvercast
5:51 AM66.9 °F57.9 °F73 %30.24 in10.0 miNE (40°)3.5 mphOvercast
6:51 AM66.9 °F57.9 °F73 %30.25 in10.0 miNNE (20°)5.8 mphOvercast
7:51 AM69.1 °F59.0 °F70 %30.26 in10.0 miNNE (30°)4.6 mphOvercast
8:51 AM71.1 °F60.1 °F68 %30.25 in10.0 miNNE (30°)4.6 mph0.00 inOvercast
9:51 AM73.0 °F60.1 °F64 %30.26 in10.0 miESE (110°)3.5 mphOvercast
10:51 AM75.0 °F57.0 °F53 %30.25 in10.0 miESE (110°)5.8 mphOvercast
11:51 AM75.0 °F55.0 °F50 %30.25 in10.0 miEast (100°)3.5 mphOvercast
12:51 PM75.9 °F55.0 °F48 %30.23 in10.0 miEast (100°)5.8 mph0.00 inRainLight Rain
1:51 PM77.0 °F54.0 °F45 %30.21 in10.0 miVariable3.5 mph0.00 inOvercast
2:51 PM75.9 °F55.0 °F48 %30.18 in10.0 miNNE (30°)10.4 mph0.00 inOvercast
3:51 PM77.0 °F55.0 °F47 %30.16 in10.0 miNE (40°)9.2 mph0.00 inOvercast
4:51 PM75.9 °F51.1 °F42 %30.14 in10.0 miNNE (30°)8.1 mph0.00 inOvercast
5:51 PM75.0 °F54.0 °F48 %30.14 in10.0 miNE (50°)8.1 mph0.00 inOvercast
6:51 PM73.9 °F52.0 °F46 %30.14 in10.0 miNNE (30°)5.8 mph0.00 inOvercast
7:51 PM72.0 °F57.9 °F61 %30.14 in10.0 miSouth (170°)5.8 mphOvercast
8:51 PM71.1 °F59.0 °F66 %30.14 in10.0 miSSW (200°)4.6 mphMostly Cloudy
9:51 PM70.0 °F57.9 °F65 %30.14 in10.0 miSouth (180°)4.6 mphMostly Cloudy
10:51 PM70.0 °F60.1 °F71 %30.15 in10.0 miSouth (180°)3.5 mphOvercast
11:51 PM68.0 °F59.0 °F73 %30.14 in10.0 miSSW (210°)3.5 mphOvercast
Hourly data recorded from KEWR, located miles away from Staten Island, New York







STORIES FROM OUR PARTNERS